Location: McFarlands Corners
(41.4117°N, 81.3382°W)
Time: 10:04:41
(UTC+00:00)

Courier 1B Rocket - Pass Details

Date: 22 February 2026
Orbit: 920 x 1201 km, 28.2° (Epoch: 10 March)

Event Time Altitude Azimuth Distance (km) Brightness Sun altitude
Rises 22:48:19 0° 228° (SW) 3,585 9.3 2.7°
Reaches altitude 10° 22:51:41 10° 212° (SSW) 2,617 8.1 2.1°
Maximum altitude 22:56:00 20° 168° (SSE) 2,000 6.7 1.3°
Drops below altitude 10° 23:00:19 10° 123° (ESE) 2,606 6.9 0.5°
Sets 23:03:39 0° 107° (ESE) 3,564 7.4 -0.1°
